Weather History for Worland, WY

Change the Weather History Date:

Monday, May 12, 2014

  Actual Average Record
Temperature  
Mean Temperature 41 °F 54 °F  
Max Temperature 53 °F 69 °F 92 °F (1960)
Min Temperature 29 °F 40 °F 27 °F (1983)
Degree Days  
Heating Degree Days 24 11  
Month to date heating degree days 191 154  
Since 1 July heating degree days 8093 7621  
Cooling Degree Days 0 0  
Month to date cooling degree days 0 0  
Year to date cooling degree days 0 1  
Moisture  
Dew Point 24 °F    
Average Humidity 60    
Maximum Humidity 96    
Minimum Humidity 24    
Precipitation  
Precipitation 0.00 in 0.05 in 0.43 in (1961)
Month to date precipitation 0.54 0.52  
Year to date precipitation 1.61 2.26  
Sea Level Pressure  
Sea Level Pressure 30.36 in    
Wind  
Wind Speed 11 mph (NNW)    
Max Wind Speed 25 mph    
Max Gust Speed 32 mph    
Visibility 10 miles    
Events      
T = Trace of Precipitation, MM = Missing Value Source: NWS Daily Summary

Daily Weather History Graph

Daily Weather History Graph

Search for Another Location

Airport:

Trip Planner

Search our weather history database for the weather conditions in past years. The results will help you decide how hot, cold, wet, or windy it might be!

Date:

Astronomy

May. 12, 2014 Rise Set
Actual Time 5:49 AM MDT 8:27 PM MDT
Civil Twilight 5:16 AM MDT 9:01 PM MDT
Nautical Twilight 4:34 AM MDT 9:42 PM MDT
Astronomical Twilight 3:47 AM MDT 10:30 PM MDT
Moon 6:24 PM MDT (5/12) 4:35 AM MDT (5/12)
Length of Visible Light 15h 44m
Length of Day
14h 38m
Waxing Gibbous, 95% of the Moon is Illuminated
May 12
Waxing Gibbous
May 14
Full
May 21
Last Quarter
May 28
New
Jun 5
First Quarter

Hourly Weather History & Observations

Time (MDT) Temp. Windchill Dew Point Humidity Pressure Visibility Wind Dir Wind Speed Gust Speed Precip Events Conditions
12:53 AM 37.0 °F 31.0 °F 33.1 °F 86% 30.27 in 10.0 mi South 8.1 mph - N/A   Overcast
1:53 AM 36.0 °F - 33.1 °F 89% 30.27 in 10.0 mi Calm Calm - N/A   Overcast
2:53 AM 34.0 °F - 32.0 °F 92% 30.27 in 10.0 mi Calm Calm - N/A   Clear
3:53 AM 35.1 °F - 33.1 °F 92% 30.29 in 10.0 mi Calm Calm - N/A   Overcast
4:53 AM 36.0 °F 28.0 °F 27.0 °F 70% 30.31 in 10.0 mi NNW 11.5 mph - N/A   Overcast
5:53 AM 36.0 °F 28.5 °F 26.1 °F 67% 30.33 in 10.0 mi NNW 10.4 mph - N/A   Overcast
6:53 AM 36.0 °F 31.1 °F 26.1 °F 67% 30.36 in 10.0 mi NNW 5.8 mph - N/A   Overcast
8:53 AM 42.1 °F 34.2 °F 27.0 °F 55% 30.37 in 10.0 mi NNW 16.1 mph - N/A   Clear
9:53 AM 44.1 °F 35.9 °F 25.0 °F 47% 30.38 in 10.0 mi NNW 19.6 mph - N/A   Clear
10:53 AM 46.9 °F - 21.0 °F 36% 30.37 in 10.0 mi NW 13.8 mph - N/A   Clear
11:53 AM 48.0 °F - 19.9 °F 33% 30.37 in 10.0 mi NNW 13.8 mph 21.9 mph N/A   Overcast
12:53 PM 48.0 °F - 19.0 °F 32% 30.36 in 10.0 mi NNW 17.3 mph 25.3 mph N/A   Overcast
1:53 PM 48.9 °F - 18.0 °F 29% 30.37 in 10.0 mi NNW 11.5 mph 24.2 mph N/A   Overcast
2:53 PM 50.0 °F - 17.1 °F 27% 30.37 in 10.0 mi NNW 16.1 mph 25.3 mph N/A   Mostly Cloudy
3:53 PM 51.1 °F - 17.1 °F 26% 30.37 in 10.0 mi NNW 17.3 mph 26.5 mph N/A   Mostly Cloudy
5:53 PM 51.1 °F - 17.1 °F 26% 30.37 in 10.0 mi NNW 17.3 mph 23.0 mph N/A   Mostly Cloudy
6:53 PM 48.9 °F - 19.0 °F 31% 30.38 in 10.0 mi NNW 18.4 mph - N/A   Clear
7:53 PM 46.9 °F - 19.0 °F 33% 30.40 in 10.0 mi NNW 16.1 mph - N/A   Partly Cloudy
9:53 PM 39.0 °F 34.0 °F 23.0 °F 53% 30.44 in 10.0 mi NNW 6.9 mph - N/A   Clear
10:53 PM 37.0 °F 34.5 °F 23.0 °F 57% 30.45 in 10.0 mi Variable 3.5 mph - N/A   Clear